AQI (36)

Current Conditions for Foresthill, CA. Sunny, Dry   
Visibility: 10 miles
Space WX Alerts: CONTINUED ALERT:  Electron 2MeV Integral Flux exceeded 1000pfu ( Latest Alert ) - Issue Time: 2018 Oct 19 1647 UTC

  Summary / Temperature 

Current Temperature
73.5°F
23.1°C
(24/hr Ago)
70.1°F
(Apparent temp)
68.8°F
Comfortable
Heat Index
72.1°F 

73.5°F/ 23.1°C
 --- Virtual Temp: 74.8°F ---

 Temp Rate:

 24/hr Difference:

 Avg Running Temp:

 Todays High:

 Todays Low:

 Y-days High:

 Y-days Low:

 Todays HeatIdx:

 Y-days HeatIdx:

 Evapotranspiration:

+3.2°F/hr 

+3.4°F

71.0°F

73.4°F 1:12pm

55.6°F 7:43am

71.7°F 2:44pm

54.2°F 6:45am

72.2°F 1:12pm

70.6°F 2:45pm

0.063 in

115' Above Ground

 Temperature:

 6'AGL VRS 115'AGL:

 Avg Running Temp:

 Humidity:

 Todays High:

 Todays Low:

 Y-days High:

 Y-days Low:

75.0°F 

+1.5°F

73.4°F

21% 

75.0°F 12:56pm

60.0°F 5:28am

73.0°F 1:32pm

56.0°F 7:24am

Temp & Humidity Graphs

  Wind 

Wind Speed

 Calm

Gusting to

 7.0 mph

Wind from NW

325°  NW

Calm

 Avg speed:

 Wind Run:

 Peak Gust:

  2.0 mph 

8.0 miles

  12.0 mph 3:08am

  Almanac  

Moon age: 10 days,3 hours,5 minutes,78%

Waxing Gibbous
78%
Illuminated
10 days in cycle

 Moonrise:

 Moonset:

 Sunrise:

 Sunset:

 Solar Noon:

4:12pm

2:10am

7:18am

6:19pm

12:48pm

2min 31s less daylight tomorrow 

  Solar Radiation 

(Current Solar)
  656 W/m2 (92%)
(Todays High)
 666 W/m2@12:42pm
Feels like: 83.8°F in the sun

Rain

 Rain Today:

 Rain Rate (/hr):

 Rain last hour:

 Rain Yesterday:

 This Month:

 Season Total:

12 Days Since Last Rain Day

0.00 in

0.000 in

0.00 in

0.00 in

0.92 in

0.92 in

Updated Time

Updated: 10/19/18  1:14pm

(Updated  sec ago)

Humidity & Barometer

 Humidity:

 Wetbulb:

 Dew Point:

 Barometer:

22% 

57.0°F 

32.3°F 

30.136 inHg 

 Baro Trend:  Falling Slowly 
Northern Calif
Preparedness
Fire 
Level 

    UV Index  

(Current UV)
4.3  Medium
(Todays High) @ 12:24pm
4.3   Medium

National Weather Service Forecast

This
Afternoon
This Afternoon: Sunny
Sunny
Tonight

Tonight: Clear
Clear
Saturday

Saturday: Sunny
Sunny
Saturday
Night
Saturday Night: Clear
Clear
Sunday

Sunday: Sunny
Sunny
Sunday
Night
Sunday Night: Clear
Clear
Hi 77 °F ↓ Lo 52 °F ↑ Hi 76 °F ↓ Lo 55 °F Hi 74 °F Lo 53 °F

Foresthill Probe 2 Stats  
Foresthill Probe 2: is located on Thomas Street
at 3000 feet. The main Foresthill Weather site
is located on Melody ln at the 2860 foot elevation

Calm
62.8°F
17.1°C
Temp Rate:
-2.6°F
Calm
Gusting to
None
(Humidity)
35%
Calm
314°  
Updated: 18/10/18 - 18:42:12
 Todays High: 72.1°F 14:29
 Todays Low: 51.7°F 07:29
 Rain Today: 0.00 in
 Season Total: 0.63 in

Foresthill Wx: Monthly,Yearly, Highs and Lows 

Foresthill  
This Weather Data is coming from the main Foresthill
Weather site located on Melody ln at the 2860 foot
elevation
Not Foresthill Probe 2
Weather Data
Month
  High
Month
  Low
Year
High
Year
Low
Temp 76.9°F
10/2/18
48.1°F
10/5/18
93.9°F
8/10/18
21.9°F
2/23/18
Humidity 100%
10/5/18
9%
10/15/18
100%
1/8/18
9%
10/15/18
Heat Index 76.7°F
10/2/18
50.6°F
10/7/18
93.3°F
7/25/18
27.1°F
2/20/18
Wind Chill 76.9°F
10/2/18
44.2°F
10/5/18
93.9°F
8/10/18
9.2°F
2/23/18
Wind Gust 43 mph
10/14/18
0 mph
10/1/18
43 mph
3/1/18
0 mph
1/1/18
Barometer 30.19 in
10/19/18
29.75 in
10/9/18
30.55 in
1/27/18
29.60 in
6/16/18
ET 0.20 in
10/14/18
0.00 in
10/1/18
0.25 in
6/24/18
0.00 in
1/1/18
Dew Point 55.9°F
10/3/18
7.1°F
10/15/18
66.9°F
7/24/18
7.1°F
10/15/18
Pacific Satellite US Radar Satellite Imagery Sacramento,CA.  (click to enlarge)
NWS Weather Forecast - Summary
Updated: Friday, October 19, 2018 - 3:00am PDT
Locally Breezy Northeast Winds Over Portions Of The Eastern Foothills and Sierra Nevada Tonight
Current Interstate Highway Conditions for I-80 & US-50

[I 80: IN THE SAN FRANCISCO BAY AREA - SOLANO CO]
no traffic restrictions are reported for this area.

[I 80: IN THE NORTHERN CALIFORNIA AREA & SIERRA NEVADA]
no traffic restrictions are reported for this area.

[US 50: IN THE SACRAMENTO VALLEY & THE LAKE TAHOE BASIN]
no traffic restrictions are reported for this area.
NWS Weather Forecast: This Afternoon and Tonight (Updated: Fri, 19-Oct-2018 2:02am PDT)
This
Afternoon
This Afternoon: Sunny
Sunny

Hi 77 °F ↓
NWS forecast: Sunny. High near 77, with temperatures falling to around 71 in the afternoon. West wind around 5 mph.
Tonight

Tonight: Clear
Clear

Lo 52 °F ↑
NWS forecast: Clear. Low around 52, with temperatures rising to around 54 overnight. East northeast wind 5 to 10 mph.
YR.NO 10 Day Weather forecast
Last update: 10/19/2018 @ 00:33
Next update: 10/19/2018 @ 13:00
Provided by: 22
      Temperature Precipitation Pressure Wind  
Today
10/19/2018
11:00 12:00 73°F   30.12 inHg Light air from west-southwest 3 mph
  12:00 18:00 75°F   30.10 inHg Light breeze from west-southwest 5 mph
  18:00 00:00 66°F   30.04 inHg Light air from west-northwest 3 mph
    (Click to enlarge)
meteogram

    Forecast for next 9 days

      Temperature Precip Pressure Wind  
Saturday
10/20/2018
00:00 06:00 61°F   30.02 inHg Light breeze from east-northeast 6 mph
  06:00 12:00 54°F   30.04 inHg Light breeze from east-northeast 7 mph
  12:00 18:00 75°F   30.00 inHg Light breeze from southwest 5 mph
  18:00 00:00 64°F   29.96 inHg Light air from southwest 3 mph
      Temperature Precip Pressure Wind  
Sunday
10/21/2018
00:00 06:00 48°F   29.99 inHg Light breeze from east-northeast 4 mph
  06:00 12:00 45°F   29.99 inHg Light breeze from east-northeast 6 mph
  12:00 18:00 73°F   29.97 inHg Light breeze from west-southwest 4 mph
  17:00 23:00 70°F   29.94 inHg Light breeze from west 4 mph
  23:00 05:00 46°F   29.96 inHg Light breeze from east-northeast 5 mph
      Temperature Precip Pressure Wind  
Monday
10/22/2018
05:00 11:00 45°F   29.94 inHg Light breeze from east-northeast 7 mph
  11:00 17:00 72°F   29.95 inHg Light air from west-southwest 3 mph
  17:00 23:00 68°F   29.92 inHg Light air from southwest 3 mph
  23:00 05:00 46°F   29.96 inHg Light breeze from east-northeast 4 mph
      Temperature Precip Pressure Wind  
Tuesday
10/23/2018
05:00 11:00 43°F   29.97 inHg Light breeze from east-northeast 5 mph
  11:00 17:00 66°F   30.02 inHg Light breeze from southwest 4 mph
  17:00 23:00 64°F   29.98 inHg Light breeze from west-southwest 5 mph
  23:00 05:00 52°F   29.99 inHg Light air from northeast 2 mph
      Temperature Precip Pressure Wind  
Wednesday
10/24/2018
05:00 11:00 43°F   29.98 inHg Light breeze from east-northeast 5 mph
  11:00 17:00 64°F   30.01 inHg Light breeze from southwest 5 mph
  17:00 23:00 63°F   29.97 inHg Light air from west-southwest 3 mph
  23:00 05:00 43°F   30.04 inHg Light breeze from east-northeast 4 mph
      Temperature Precip Pressure Wind  
Thursday
10/25/2018
05:00 11:00 41°F   30.04 inHg Light breeze from east-northeast 4 mph
  11:00 17:00 66°F   30.08 inHg Light air from southwest 3 mph
  17:00 23:00 66°F   30.05 inHg Light breeze from west-southwest 5 mph
  23:00 05:00 48°F   30.08 inHg Light air from east-northeast 3 mph
      Temperature Precip Pressure Wind  
Friday
10/26/2018
05:00 11:00 48°F   30.07 inHg Light breeze from east-northeast 4 mph
  11:00 17:00 68°F   30.09 inHg Light breeze from west 4 mph
  17:00 23:00 66°F   30.01 inHg Light breeze from west-northwest 4 mph
  23:00 05:00 46°F   30.02 inHg Light breeze from east-northeast 6 mph
      Temperature Precip Pressure Wind  
Saturday
10/27/2018
05:00 11:00 43°F   29.98 inHg Light breeze from east-northeast 6 mph
  11:00 17:00 73°F   29.99 inHg Light air from southwest 2 mph
  17:00 23:00 68°F   29.95 inHg Light air from southwest 2 mph
  23:00 05:00 46°F   30.00 inHg Light breeze from east-northeast 4 mph
      Temperature Precip Pressure Wind  
Sunday
10/28/2018
05:00 11:00 48°F   30.01 inHg Light breeze from east 6 mph
  11:00 17:00 70°F   30.09 inHg Light breeze from south-southwest 6 mph

NOAA Local Storm Report
5 MILES NORTHEAST OF HUNTINGTON   ( More )
DATE
10/16/2018
TIME
5:30 AM
COUNTY
ANGELINA
STATE
TX
GEOGRAPHIC
31.33N 94.53W
SOURCE
DEPT OF HIGHWAYS
FLASH FLOOD
fm 1669 just south of highway 103 east is closed due to flooding.
How Close Are We To this Month's Temperature Record ?
Updated Friday, Oct 19, 2018- 1:05:01 PM

Current Temperature: 73.5°F

October's High: Temperature Record 90.8°F - Set on Mon, Oct 1, 2012 - 2:51:00 PM
We are currently 17.3°F Less than this Month's record High

October's Low: Temperature Record 38.8°F - Set on Tue, Oct 23, 2012 - 11:59:00 PM
We are currently 34.7°F More than this Month's record Low

Weather History For Friday, October 19, 2018


On this Day - In Weather History ...
Data courtesy of weatherforyou.com
powered by Cumulus v1.9.3 (1059)
Ambient Weather VWS v14.00
Top Contact Website Map Copyright © 2007 - 2018 Foresthillweather.com Never base important decisions on this or any weather information obtained from the Internet